Terminal Aerodrome Forecast
Issued by NWS

Home | Current Version | Previous Version | Text Only | Print | Product List | Glossary On
Versions: 1 2 3 4 5 6 7 8 9 10 11 12 13 14 15 16 17 18 19
000
FTUS46 KLOX 190500
TAFOXR
TAF
KOXR 190537Z 1906/2006 VRB03KT P6SM SCT035
     FM192000 26008KT P6SM VCSH BKN035
     FM200200 VRB03KT P6SM VCSH SCT015 BKN030=

USA.gov is the U.S. government's official web portal to all federal, state and local government web resources and services.